Location: ??????
(56.0120°N, 39.1740°E)
Time: 06:16:52
(UTC+00:00)

Cosmos 1470 Rocket - Pass Details

Date: 14 April 2026
Orbit: 596 x 627 km, 82.5° (Epoch: 10 May)

Event Time Altitude Azimuth Distance (km) Brightness Sun altitude
Rises 17:23:19 0° 202° (SSW) 2,879 6.9 -7.9°
Reaches altitude 10° 17:25:34 10° 207° (SSW) 1,974 6.1 -8.1°
Maximum altitude 17:29:53 57° 286° (WNW) 722 4.3 -8.6°
Drops below altitude 10° 17:34:11 10° 6° (N) 1,970 6.5 -9.2°
Sets 17:36:26 0° 11° (N) 2,873 7.3 -9.4°
